Regional Weather Roundup
Issued by NWS

Home | Current Version | Previous Version | Graphics & Text | Print | Product List | Glossary On
Versions: 1 2 3 4 5 6 7 8 9 10 11 12 13 14 15 16 17 18 19 20 21 22 23 24 25 26 27 28 29 30 31 32 33 34 35 36 37 38 39 40 41 42 43 44 45 46 47 48 49 50
019
ASUS43 KDMX 141503
RWRIA

WEATHER ROUNDUP FOR IOWA
NATIONAL WEATHER SERVICE DES MOINES IA
900 AM CST SUN FEB 14 2016

NOTE: "FAIR" INDICATES FEW OR NO CLOUDS BELOW 12,000 FEET WITH NO
SIGNIFICANT WEATHER AND/OR OBSTRUCTIONS TO VISIBILITY.

* - THESE STATIONS ARE NOT NWS STATIONS...THUS NOT UNDER NWS
QUALITY CONTROL.  THEY ALSO DO NOT REPORT WEATHER SUCH
AS PRECIPITATION OR FOG.

IAZ001>003-012>014-020>022-031>034-043>046-141600-
   NORTHWEST IOWA

CITY           SKY/WX    TMP DP  RH WIND       PRES   REMARKS
CARROLL *      LGT SNOW  18  16  93 SE14      29.93F VSB 1   WCI   4
CHEROKEE *     CLOUDY    16  14  93 SE13      29.90F WCI   2
DENISON *      CLOUDY    18  16  93 S12G18    29.87F WCI   5
LE MARS *      CLOUDY    18  16  93 SE8G14    29.89F WCI   7
ORANGE CITY *  LGT SNOW  16  16 100 SE6       29.87S WCI   7
SHELDON *      FOG       14  12  92 SE15      29.87F VSB 3/4 WCI  -1
SIOUX CITY     CLOUDY    20  14  77 SE10      29.88F WCI   9
SPENCER        CLOUDY    15  10  80 SE16      29.91S WCI  -1
STORM LAKE *   CLOUDY    14  14 100 SE20      29.89F FOG     WCI  -3
$$

IAZ055>058-069>071-079>083-090>094-141600-
   SOUTHWEST IOWA

CITY           SKY/WX    TMP DP  RH WIND       PRES   REMARKS
ATLANTIC *     CLOUDY    19  16  86 S10       29.92F WCI   8
AUDUBON *      LGT SNOW  18  14  86 S12G18    29.92F WCI   5
CLARINDA *     CLOUDY    25  12  58 S9G17     29.96F WCI  15
COUNCIL BLFS * CLOUDY    23  12  63 S10       29.88F WCI  12
CRESTON *      CLOUDY    18  14  86 SE14      29.95F WCI   4
HARLAN  *      CLOUDY    19  16  86 S12       29.94F WCI   7
LAMONI         CLOUDY    20  14  77 SE14G21   29.96F WCI   7
RED OAK *      CLOUDY    25  12  58 S13       29.93F WCI  13
SHENANDOAH *   CLOUDY    27  10  50 S17       29.93F WCI  14
$$

IAZ047>049-059>061-072>074-084-141600-
   CENTRAL IOWA

CITY           SKY/WX    TMP DP  RH WIND       PRES   REMARKS
AMES           CLOUDY    17  13  84 SE15G22   30.00F WCI   2
ANKENY *       LGT SNOW  18  14  86 SE12G20   30.01F VSB 1   WCI   5
BOONE *        LGT SNOW  16  12  86 SE18      29.97S WCI  -1
CHARITON *     LGT SNOW  19  14  79 SE14G20   30.00S WCI   6
DES MOINES     SNOW      18  14  84 SE9       30.00F VSB 1/2 WCI   7
GRINNELL*      LGT SNOW  16  13  88 SE12G18   30.04S WCI   3
KNOXVILLE *    LGT SNOW  18  14  86 SE10G17   30.01F VSB 3/4 WCI   6
MARSHALLTOWN   LGT SNOW  16  12  84 SE20      30.02F FOG     WCI  -1
NEWTON *       LGT SNOW  16  16 100 SE16G23   30.02F WCI   0
PELLA *        LGT SNOW  18  14  86 SE9       30.05F WCI   6
$$

IAZ004>006-015-016-023>025-035-036-141600-
   NORTH CENTRAL IOWA

CITY           SKY/WX    TMP DP  RH WIND       PRES   REMARKS
ALGONA *       LGT SNOW  16  12  86 SE21      29.94F WCI  -2
CLARION *      FOG       16  12  86 SE22      29.98F VSB 1/2 WCI  -2
ESTHERVILLE    LGT SNOW  13  11  92 SE18      29.92F FOG     WCI  -4
FORT DODGE *   CLOUDY    16  10  79 SE13      29.97F WCI   2
MASON CITY     SNOW      15  12  88 SE18      30.01F VSB 1/2 WCI  -2
FOREST CITY *  LGT SNOW  16  12  86 SE15      29.99S WCI   1
WEBSTER CITY * CLOUDY    16  14  93 SE20      29.96F FOG     WCI  -1
IOWA FALLS *   LGT SNOW  17  13  86 SE16G23   30.01S WCI   1
$$

IAZ007>011-017>019-026>030-037>042-050>054-066-141600-
   NORTHEAST IOWA

CITY           SKY/WX    TMP DP  RH WIND       PRES   REMARKS
CEDAR RAPIDS   SNOW      16  14  92 SE13      30.08F VSB 1/4 WCI   2
CHARLES CITY * CLOUDY    14  12  92 SE16G23   30.04F FOG     WCI  -2
CLINTON *      LGT SNOW  16  11  80 SE16      30.19R WCI   1
DUBUQUE        LGT SNOW  14   9  80 SE17      30.14R VSB 3/4 WCI  -3
MONTICELLO *   LGT SNOW  16  12  86 SE16      30.13S WCI   0
OELWEIN *      SNOW      16  12  86 SE21      30.08F VSB 1/4 WCI  -2
WATERLOO       SNOW      16  12  84 SE12      30.06F VSB 1/2 WCI   3
$$

IAZ064-065-067-068-078-141600-
   EAST CENTRAL IOWA

CITY           SKY/WX    TMP DP  RH WIND       PRES   REMARKS
DAVENPORT      SNOW      16  12  84 SE20      30.17F VSB 1/4 WCI  -1
IOWA CITY      SNOW      17  14  88 SE13      30.14S VSB 1/4 WCI   4
MT. PLEASANT * SNOW      19  16  86 SE14      30.12S VSB 1/2 WCI   6
MUSCATINE *    SNOW      18  14  86 SE10      30.17S VSB 1/4 WCI   6
QUAD CITIES    HVY SNOW  17  12  80 SE12      30.19R VSB 1/4 WCI   4
$$

IAZ062-063-075>077-085>089-095>099-141600-
   SOUTHEAST IOWA

CITY           SKY/WX    TMP DP  RH WIND       PRES   REMARKS
BURLINGTON     LGT SNOW  16  14  92 SE13      30.12F VSB 3/4 WCI   2
FAIRFIELD *    LGT SNOW  18  14  86 SE15      30.07F WCI   3
FORT MADISON * LGT SNOW  18  16  93 SE8       30.12R VSB 3/4 WCI   7
KEOKUK *       LGT SNOW  19  18  93 SE9G15    30.10S VSB 1   WCI   9
OSKALOOSA *    LGT SNOW  18  14  86 SE15      30.06F WCI   3
OTTUMWA        CLOUDY    18  15  88 SE13      30.05F WCI   5
WASHINGTON *   LGT SNOW  16  14  93 SE17      30.10F VSB 3/4 WCI   0
$$

ABBREVIATIONS USED IN REMARKS
   TC - TEMPERATURES IN CELSIUS
  WCI - WIND CHILL INDEX
   HX - HEAT INDEX
  VSB - VISIBILITY
$$





USA.gov is the U.S. government's official web portal to all federal, state and local government web resources and services.